{"data":{"norad_id":56922,"intl_designator":"2023-083AY","name":"STARLINK-5937","alt_names":[],"object_type":"PAYLOAD","status":"ACTIVE","operator":null,"country":"US","launch_date":"2023-06-12","launch_site_code":"AFETR","launch_vehicle":null,"mission":null,"orbit_class":"UNKNOWN","rcs_meters":null,"size_class":null,"mass_kg":null,"dimensions":null,"purposes":["comms"],"wikipedia_slug":null,"has_3d_model":false,"image_url":null,"decayed_at":null,"tle_current":{"epoch":"2026-09-19T17:57:54.535968Z","epoch_age_seconds":182782,"freshness":"STALE","line1":"1 56922U 23083AY  26262.74854787  .00000126  00000+0  14129-4 0  9997","line2":"2 56922  43.0053  55.0147 0001731 272.0476  88.0177 15.27577648181477","mean_motion":15.27577648,"eccentricity":0.0001731,"inclination_deg":43.0053,"raan_deg":55.0147,"arg_perigee_deg":272.0476,"mean_anomaly_deg":88.0177,"bstar":1.4129e-5,"rev_number":18147,"period_min":94.266893855467,"perigee_km":481.86846625049,"apogee_km":484.24381131514,"semimajor_km":6861.1931387828,"source":"CELESTRAK","updated_at":"2026-09-21T09:00:33.529574Z"}}}